Regional Weather Roundup
Issued by NWS Northern Indiana

Home | Current Version | Previous Version | Graphics & Text | Print | Product List | Glossary On
Versions: 1 2 3 4 5 6 7 8 9 10 11 12 13 14 15 16 17 18 19 20 21 22 23 24 25 26 27 28 29 30 31 32 33 34 35 36 37 38 39 40 41 42 43 44 45 46 47 48 49 50
760
ASUS43 KIWX 261700
RWRIWX

KIWX WEATHER ROUNDUP
NATIONAL WEATHER SERVICE NORTHERN INDIANA
100 PM EDT FRI AUG 26 2016

NOTE: "FAIR" INDICATES FEW OR NO CLOUDS BELOW 12,000 FEET WITH NO
SIGNIFICANT WEATHER AND/OR OBSTRUCTIONS TO VISIBILITY.

* THESE STATIONS ARE NOT UNDER NWS QUALITY CONTROL. THEY ALSO MAY NOT
  REPORT WEATHER SUCH AS PRECIPITATION OR FOG.

INZ001>027-261800-
NORTHERN INDIANA

CITY           SKY/WX    TMP DP  RH WIND       PRES   REMARKS
GARY*          PTSUNNY   77  70  78 N8        30.17F
KNOX*          MOSUNNY   79  41  25 NE3       30.16F
SOUTH BEND     SUNNY     80  62  54 NW5       30.17F
ELKHART*       SUNNY     79  59  50 CALM      30.17F
GOSHEN         SUNNY     81  63  54 NE3       30.17F
MONTICELLO*    MOSUNNY   80  64  59 CALM      30.15S
ANGOLA*        SUNNY     82  64  54 CALM      30.17S
FORT WAYNE     MOSUNNY   81  57  43 E7        30.17F
PERU/GRISSOM   PTSUNNY   81  70  70 NE5       30.15S

$$
INZ028>050-261800-
CENTRAL INDIANA

CITY           SKY/WX    TMP DP  RH WIND       PRES   REMARKS
LAFAYETTE      MOSUNNY   81  72  74 NE3       30.13F
MUNCIE*        MOSUNNY   83  73  72 E5        30.15F
INDIANAPOLIS   MOSUNNY   85  73  67 CALM      30.12F

$$
MIZ043>046-050>051-056>058-064>065-071>073-077>080-261800-
SOUTHWEST LOWER MICHIGAN

CITY           SKY/WX    TMP DP  RH WIND       PRES   REMARKS
BATTLE CREEK   SUNNY     76  64  66 SW7       30.18F
BENTON HARBOR  SUNNY     78  63  59 VRB6      30.17F
COLDWATER*     SUNNY     79  65  60 S3        30.17F
HILLSDALE*     SUNNY     78  62  59 CALM      30.17F
HOLLAND        SUNNY     75  62  64 NW7       30.18F
GRAND RAPIDS   PTSUNNY   77  57  50 W9        30.17S
KALAMAZOO      SUNNY     79  60  52 CALM      30.17F
STURGIS*       SUNNY     78  61  55 CALM      30.16F

$$
OHZ001>008-015>018-024>025-261800-
NORTHWEST OHIO

CITY           SKY/WX    TMP DP  RH WIND       PRES   REMARKS
DEFIANCE       CLOUDY    80  62  54 S3        30.17S
FINDLAY        MOSUNNY   80  59  48 CALM      30.16F
TOLEDO EXPRESS CLOUDY    80  63  55 NW7       30.16S
TOLEDO METCALF SUNNY     82  61  48 CALM      30.16F
LIMA           MOSUNNY   79  62  56 CALM      30.18S

$$
AND FOR LAKE MICHIGAN COASTAL AND OPEN LAKE BUOY OBSERVATIONS

STATION/POSITION TEMP    WIND        PRES    VSBY  WAVE
                 AIR SEA DIR/SP/G                  HT/PER
                 (F)     (DEG/KT/KT) (MB)    (MI)  (FT/S)
CALUMET HARBOR    71     330/  9/ 11 1021.6R
MICHIGAN CITY     73     350/  7/  8   N/A
BURNS HARBOR      74      40/  8/  8 1022.0S
SAINT JOSEPH      76     360/  4/  5 1022.7S
SOUTH LAKE BUOY   70 75  350/  6/  8 1021.7          1/ 4
4 MI NW BRIDGMAN  73 75  350/  4/  6 1021.7R         2/ 4
MICHIGAN CITY     74 75   20/  4/  6   N/A           2/ 4

$$
&&




USA.gov is the U.S. government's official web portal to all federal, state and local government web resources and services.